This is the latest recevied weather packets stored in our database for station/object K5KVN. If no packets are shown the sender has not sent any weather packets the latest 10 day(s).
| Time | Temp. | Humidity | Pressure | Rain* | Wind** | Luminosity | Snow |
|---|---|---|---|---|---|---|---|
| 1777306293 | 25° C | 83% | 1006.7 hPa | 0 mm | - | - | - |
| 1777305696 | 25° C | 83% | 1006.5 hPa | 0 mm | - | - | - |
| 1777305096 | 25° C | 82% | 1006.5 hPa | 0 mm | - | - | - |
| 1777304496 | 25° C | 82% | 1006.4 hPa | 0 mm | - | - | - |
| 1777303894 | 24.44° C | 84% | 1006.3 hPa | 0 mm | - | - | - |
| 1777303295 | 24.44° C | 83% | 1006.2 hPa | 0 mm | - | - | - |
| 1777302695 | 25° C | 83% | 1006.1 hPa | 0 mm | - | - | - |
| 1777302094 | 24.44° C | 85% | 1006.1 hPa | 0 mm | - | - | - |
| 1777301492 | 24.44° C | 84% | 1005.9 hPa | 0 mm | - | - | - |
| 1777300892 | 24.44° C | 85% | 1005.8 hPa | 0 mm | - | - | - |
| 1777300352 | 23.89° C | 85% | 1005.6 hPa | 0 mm | - | - | - |
| 1777299692 | 23.89° C | 85% | 1005.6 hPa | 0 mm | - | - | - |
| 1777299091 | 23.89° C | 85% | 1005.8 hPa | 0 mm | - | - | - |
| 1777298552 | 23.89° C | 85% | 1005.7 hPa | 0 mm | - | - | - |
| 1777297892 | 23.89° C | 85% | 1005.8 hPa | 0 mm | - | - | - |
| 1777297293 | 23.33° C | 86% | 1005.9 hPa | 0 mm | - | - | - |
| 1777296692 | 23.33° C | 86% | 1005.9 hPa | 0 mm | - | - | - |
| 1777296094 | 23.33° C | 87% | 1005.9 hPa | 0 mm | - | - | - |
| 1777295492 | 23.33° C | 87% | 1005.9 hPa | 0 mm | - | - | - |
| 1777294892 | 23.33° C | 87% | 1005.7 hPa | 0 mm | - | - | - |
| 1777294290 | 23.33° C | 86% | 1005.6 hPa | 0 mm | - | - | - |
| 1777293691 | 23.33° C | 87% | 1005.5 hPa | 0 mm | - | - | - |
| 1777293151 | 23.33° C | 87% | 1005.2 hPa | 0 mm | - | - | - |
| 1777292492 | 23.33° C | 87% | 1005.1 hPa | 0 mm | - | - | - |
| 1777291950 | 22.78° C | 87% | 1005.1 hPa | 0 mm | - | - | - |
* Rain latest hour (hover to see other rain measurements)
** Current wind speed in m/s (hover to see current wind gust speed)